GW2822 Weather Reports


time (UTC)temp
C
wind
direction
speed
KPH
gust
KPH
rain 1hr
cm
rain 24hr
cm
rain mn
cm
humidity
%
barometer
mb
20260905055517 25 135 3.2 6.4 0.00 0.03 0.00 82 1010.6
20260905055006 25 150 0.0 11.3 0.00 0.03 0.00 82 1010.6
20260905054555 25 131 3.2 11.3 0.00 0.03 0.00 82 1010.7
20260905054044 25 140 1.6 11.3 0.00 0.03 0.00 82 1010.7
20260905053535 25 153 1.6 11.3 0.00 0.03 0.00 82 1010.8
20260905053022 25 138 1.6 6.4 0.00 0.03 0.00 82 1010.7
20260905052516 25 144 1.6 11.3 0.00 0.03 0.00 82 1010.7
20260905052002 25 151 3.2 8.0 0.00 0.03 0.00 82 1010.8
20260905051554 25 120 3.2 9.7 0.00 0.03 0.00 81 1010.7
20260905051042 25 117 1.6 6.4 0.00 0.03 0.00 81 1010.8
20260905050531 25 126 0.0 4.8 0.00 0.03 0.00 80 1010.8
20260905050007 25 128 0.0 4.8 0.00 0.03 0.03 80 1010.9
20260905045558 25 128 0.0 4.8 0.00 0.03 0.03 79 1010.9
20260905045048 25 114 0.0 4.8 0.00 0.03 0.03 79 1010.9
20260905044538 25 114 0.0 3.2 0.00 0.03 0.03 79 1010.9
20260905044026 25 115 0.0 1.6 0.00 0.03 0.03 78 1010.9
20260905043516 25 115 0.0 6.4 0.00 0.03 0.03 78 1010.9
20260905043009 25 115 0.0 6.4 0.00 0.03 0.03 78 1010.9
20260905042556 25 117 0.0 4.8 0.00 0.03 0.03 78 1011.0
20260905042048 26 118 0.0 4.8 0.00 0.03 0.03 77 1011.0
20260905041535 26 118 0.0 4.8 0.00 0.03 0.03 77 1011.0
20260905041027 26 117 0.0 4.8 0.00 0.03 0.03 76 1011.0
20260905040514 26 118 0.0 4.8 0.00 0.03 0.03 76 1010.9
20260905040052 26 118 0.0 4.8 0.00 0.03 0.03 76 1010.9
20260905035541 26 115 0.0 4.8 0.00 0.03 0.03 75 1010.9
20260905035031 26 119 0.0 6.4 0.00 0.03 0.03 75 1010.9
20260905034520 26 118 1.6 6.4 0.00 0.03 0.03 75 1010.8
20260905034010 26 90 0.0 6.4 0.00 0.03 0.03 74 1010.8
20260905033601 26 89 0.0 4.8 0.00 0.03 0.03 74 1010.7
20260905033051 26 88 0.0 4.8 0.00 0.03 0.03 73 1010.8
20260905032542 26 92 1.6 6.4 0.00 0.03 0.03 73 1010.8
20260905032029 26 115 0.0 3.2 0.00 0.03 0.03 73 1010.7
20260905031522 26 117 0.0 3.2 0.00 0.03 0.03 72 1010.7
20260905031007 26 117 0.0 3.2 0.00 0.03 0.03 72 1010.6
20260905030559 26 117 0.0 3.2 0.00 0.03 0.03 72 1010.6
20260905030039 26 117 0.0 3.2 0.00 0.03 0.03 71 1010.5
20260905025525 27 117 0.0 4.8 0.00 0.03 0.03 71 1010.5
20260905025016 27 118 0.0 0.0 0.00 0.03 0.03 70 1010.3
20260905024505 27 119 0.0 0.0 0.00 0.03 0.03 70 1010.2
20260905024056 27 119 0.0 3.2 0.00 0.03 0.03 70 1010.1
20260905023548 27 119 0.0 3.2 0.00 0.03 0.03 69 1010.1
20260905023035 27 119 0.0 4.8 0.00 0.03 0.03 69 1010.0
20260905022526 27 124 0.0 6.4 0.00 0.03 0.03 68 1009.9
20260905022013 27 125 0.0 6.4 0.00 0.03 0.03 68 1009.8
20260905021503 27 123 0.0 9.7 0.00 0.03 0.03 68 1009.9
20260905021053 28 123 0.0 9.7 0.00 0.03 0.03 68 1009.9
20260905020546 28 103 0.0 9.7 0.00 0.03 0.03 67 1009.9
20260905020020 28 118 0.0 8.0 0.00 0.03 0.03 67 1009.8
20260905015509 28 90 3.2 11.3 0.00 0.03 0.03 67 1009.8
20260905015101 28 121 4.8 11.3 0.00 0.03 0.03 66 1009.8
20260905014550 28 122 4.8 14.5 0.00 0.03 0.03 66 1009.7
20260905014039 28 101 4.8 14.5 0.00 0.03 0.03 66 1009.7
20260905013529 28 96 6.4 14.5 0.00 0.03 0.03 65 1009.7
20260905013017 28 108 1.6 6.4 0.00 0.03 0.03 61 1009.6
20260905012507 28 127 0.0 9.7 0.00 0.03 0.03 58 1009.6
20260905012058 28 105 3.2 9.7 0.00 0.03 0.03 57 1009.5
20260905011547 29 98 0.0 9.7 0.00 0.03 0.03 54 1009.4
20260905011036 29 108 0.0 0.0 0.00 0.03 0.03 51 1009.3
20260905010526 30 108 0.0 0.0 0.00 0.03 0.03 51 1009.3
20260905010004 30 108 0.0 0.0 0.00 0.03 0.03 51 1009.3
20260905005555 30 108 0.0 0.0 0.00 0.03 0.03 51 1009.3
20260905005047 30 108 0.0 0.0 0.00 0.03 0.03 50 1009.3
20260905004539 30 108 0.0 0.0 0.00 0.03 0.03 51 1009.2
20260905004023 30 107 0.0 4.8 0.00 0.03 0.03 51 1009.1
20260905003516 30 107 1.6 4.8 0.00 0.03 0.03 52 1009.1
20260905003002 31 135 0.0 3.2 0.00 0.03 0.03 55 1009.0
20260905002556 31 135 0.0 6.4 0.00 0.03 0.03 54 1009.0
20260905002043 31 135 0.0 11.3 0.00 0.03 0.03 54 1008.9
20260905001547 31 146 3.2 11.3 0.00 0.03 0.03 53 1008.8
20260905001022 31 138 3.2 14.5 0.00 0.03 0.03 53 1008.8
20260905000511 31 152 6.4 14.5 0.00 0.03 0.03 53 1008.7
20260905000109 32 159 4.8 11.3 0.00 0.03 0.03 54 1008.6
20260904235543 32 143 3.2 12.9 0.00 0.03 0.03 55 1008.6
20260904235031 32 173 4.8 14.5 0.00 0.03 0.03 56 1008.4
20260904234524 32 152 11.3 17.7 0.00 0.03 0.03 55 1008.5
20260904234013 32 143 6.4 17.7 0.00 0.03 0.03 56 1008.4
20260904233559 32 128 3.2 14.5 0.00 0.03 0.03 56 1008.4
20260904233102 32 154 6.4 19.3 0.00 0.03 0.03 55 1008.4
20260904232538 32 111 12.9 19.3 0.00 0.03 0.03 54 1008.3
20260904232030 32 153 9.7 16.1 0.00 0.03 0.03 55 1008.3
20260904231518 32 164 9.7 20.9 0.00 0.03 0.03 55 1008.4
20260904231008 32 198 6.4 19.3 0.00 0.03 0.03 54 1008.4
20260904230556 32 122 8.0 19.3 0.00 0.03 0.03 53 1008.4
20260904230034 32 138 4.8 17.7 0.00 0.03 0.03 53 1008.5
20260904225523 32 129 6.4 17.7 0.00 0.03 0.03 54 1008.6
20260904225014 33 79 9.7 17.7 0.00 0.03 0.03 53 1008.6
20260904224506 33 91 8.0 19.3 0.00 0.03 0.03 53 1008.6
20260904224055 33 155 9.7 19.3 0.00 0.03 0.03 52 1008.6
20260904223543 33 137 8.0 16.1 0.00 0.03 0.03 53 1008.7
20260904223033 33 163 8.0 14.5 0.00 0.03 0.03 54 1008.8
20260904222522 33 132 4.8 17.7 0.00 0.03 0.03 55 1008.9
20260904222011 33 99 1.6 14.5 0.00 0.03 0.03 55 1008.8
20260904221604 33 134 8.0 16.1 0.00 0.03 0.03 55 1008.9
20260904221051 33 169 8.0 17.7 0.00 0.03 0.03 55 1009.0
20260904220541 33 130 4.8 16.1 0.00 0.03 0.03 56 1009.1
20260904220017 33 123 6.4 19.3 0.00 0.03 0.03 56 1009.1
20260904215507 33 87 8.0 19.3 0.00 0.03 0.03 56 1009.0
20260904215058 32 134 9.7 17.7 0.00 0.03 0.03 57 1009.0
20260904214547 32 119 8.0 19.3 0.00 0.03 0.03 57 1009.0
20260904214037 32 148 9.7 20.9 0.00 0.03 0.03 55 1009.0
20260904213529 32 175 8.0 20.9 0.00 0.03 0.03 54 1009.1
20260904213023 32 166 9.7 16.1 0.00 0.03 0.03 54 1009.1
20260904212505 33 133 1.6 17.7 0.00 0.03 0.03 54 1009.3
20260904212056 33 146 8.0 17.7 0.00 0.03 0.03 53 1009.4
20260904211548 33 134 9.7 16.1 0.00 0.03 0.03 52 1009.5
20260904211034 33 92 4.8 17.7 0.00 0.03 0.03 51 1009.5
20260904210524 33 107 6.4 17.7 0.00 0.03 0.03 51 1009.6
20260904210120 33 113 9.7 17.7 0.00 0.03 0.03 49 1009.6
20260904205550 33 86 9.7 17.7 0.00 0.03 0.03 49 1009.7
20260904205040 33 123 4.8 17.7 0.00 0.03 0.03 48 1009.6
20260904204529 33 182 11.3 19.3 0.00 0.03 0.03 51 1009.6
20260904204018 33 119 4.8 17.7 0.00 0.03 0.03 48 1009.7
20260904203508 33 159 8.0 19.3 0.00 0.03 0.03 51 1009.7
20260904203104 33 160 8.0 17.7 0.00 0.03 0.03 52 1009.8
20260904202550 33 160 9.7 20.9 0.00 0.03 0.03 55 1009.7
20260904202037 33 92 11.3 20.9 0.00 0.03 0.03 53 1009.8
20260904201526 33 108 6.4 16.1 0.00 0.03 0.03 54 1009.8
20260904201015 32 131 6.4 19.3 0.00 0.03 0.03 55 1009.8
20260904200507 32 122 6.4 19.3 0.00 0.03 0.03 56 1009.8
20260904200044 32 100 8.0 22.5 0.00 0.03 0.03 56 1009.9
20260904195533 32 144 9.7 22.5 0.00 0.03 0.03 56 1009.9
20260904195022 32 130 4.8 16.1 0.00 0.03 0.03 56 1010.0
20260904194511 32 145 6.4 17.7 0.00 0.03 0.03 57 1010.1
20260904194000 32 80 8.0 17.7 0.00 0.03 0.03 57 1010.1
20260904193553 32 115 4.8 17.7 0.00 0.03 0.03 58 1010.2
20260904193040 33 175 9.7 17.7 0.00 0.03 0.03 58 1010.3
20260904192529 33 126 9.7 16.1 0.00 0.03 0.03 55 1010.3
20260904192016 33 78 3.2 16.1 0.00 0.03 0.03 57 1010.3
20260904191506 32 189 9.7 16.1 0.00 0.03 0.03 57 1010.5
20260904191058 32 158 4.8 16.1 0.00 0.03 0.03 60 1010.5
20260904190546 32 112 8.0 16.1 0.00 0.03 0.03 60 1010.6
20260904190032 32 155 3.2 14.5 0.00 0.03 0.03 61 1010.7
20260904185513 32 91 4.8 16.1 0.00 0.03 0.03 63 1010.6
20260904185002 32 202 8.0 16.1 0.00 0.03 0.03 63 1010.7
20260904184554 32 151 6.4 19.3 0.00 0.03 0.03 63 1010.7
20260904184046 32 90 3.2 19.3 0.00 0.03 0.03 63 1010.7
20260904183537 32 108 4.8 12.9 0.00 0.03 0.03 62 1010.8
20260904183026 32 113 1.6 12.9 0.00 0.03 0.03 62 1010.8
20260904182511 32 153 4.8 16.1 0.00 0.03 0.03 63 1010.7
20260904182003 32 137 11.3 16.1 0.00 0.03 0.03 63 1010.8
20260904181553 31 134 6.4 14.5 0.00 0.03 0.03 64 1010.9
20260904181042 31 154 4.8 16.1 0.00 0.03 0.03 64 1010.9
20260904180534 31 163 6.4 14.5 0.00 0.03 0.03 65 1011.0
20260904180009 31 200 8.0 17.7 0.00 0.03 0.03 66 1011.0
20260904175600 31 159 8.0 17.7 0.00 0.03 0.03 66 1011.1
20260904175050 31 207 12.9 19.3 0.00 0.03 0.03 65 1011.2
20260904174539 31 185 6.4 12.9 0.00 0.03 0.03 68 1011.2
20260904174027 30 196 1.6 17.7 0.00 0.03 0.03 70 1011.3
20260904173517 30 125 4.8 17.7 0.00 0.03 0.03 69 1011.3
20260904173014 30 158 6.4 16.1 0.00 0.03 0.03 71 1011.3
20260904172558 30 221 9.7 16.1 0.00 0.03 0.03 72 1011.3
20260904172047 30 198 4.8 17.7 0.00 0.03 0.03 72 1011.4
20260904171536 30 128 9.7 17.7 0.00 0.03 0.03 72 1011.4
20260904171025 29 170 9.7 17.7 0.00 0.03 0.03 74 1011.4
20260904170514 29 142 6.4 17.7 0.00 0.03 0.03 77 1011.4
20260904170054 28 178 9.7 17.7 0.00 0.03 0.03 77 1011.5
20260904165546 28 166 1.6 14.5 0.00 0.03 0.03 79 1011.4
20260904165036 28 211 4.8 14.5 0.00 0.03 0.03 79 1011.5
20260904164521 27 163 4.8 14.5 0.00 0.03 0.03 81 1011.5
20260904164011 27 183 8.0 14.5 0.00 0.03 0.03 83 1011.4
20260904163604 27 113 1.6 12.9 0.00 0.03 0.03 84 1011.4
20260904163053 27 164 4.8 11.3 0.00 0.03 0.03 85 1011.5
20260904162541 26 185 8.0 12.9 0.00 0.03 0.03 86 1011.4
20260904162030 26 183 6.4 16.1 0.00 0.03 0.03 87 1011.4
20260904161522 26 164 8.0 16.1 0.00 0.03 0.03 87 1011.5
20260904161008 26 170 4.8 12.9 0.00 0.03 0.03 88 1011.6
20260904160600 26 199 4.8 9.7 0.00 0.03 0.03 89 1011.7
20260904160036 26 164 4.8 9.7 0.00 0.03 0.03 90 1011.7
20260904155526 26 123 1.6 4.8 0.03 0.03 0.03 90 1011.8
20260904155014 26 116 0.0 3.2 0.03 0.03 0.03 90 1011.8
20260904154504 26 135 0.0 3.2 0.03 0.03 0.03 90 1011.9
20260904154055 26 156 0.0 3.2 0.03 0.03 0.03 91 1011.9
20260904153544 26 157 0.0 4.8 0.03 0.03 0.03 91 1011.8
20260904153034 26 157 0.0 4.8 0.03 0.03 0.03 91 1011.8
20260904152524 26 156 0.0 4.8 0.03 0.03 0.03 91 1011.8
20260904152017 26 156 0.0 4.8 0.03 0.03 0.03 91 1011.8
20260904151505 26 148 0.0 4.8 0.03 0.03 0.03 91 1011.8
20260904151053 26 103 0.0 0.0 0.03 0.03 0.03 91 1011.8
20260904150542 26 103 0.0 0.0 0.03 0.03 0.03 91 1011.8
20260904150026 26 103 0.0 8.0 0.03 0.03 0.03 90 1011.8
20260904145509 26 103 0.0 8.0 0.00 0.00 0.00 90 1011.7
20260904145104 26 161 0.0 8.0 0.00 0.00 0.00 90 1011.6
20260904144606 26 163 3.2 8.0 0.00 0.00 0.00 90 1011.6
20260904144040 26 124 1.6 9.7 0.00 0.00 0.00 89 1011.6
20260904143528 26 124 1.6 9.7 0.00 0.00 0.00 89 1011.5
20260904143017 25 173 0.0 11.3 0.00 0.00 0.00 89 1011.5
20260904142507 25 156 1.6 12.9 0.00 0.00 0.00 89 1011.5
20260904142058 25 119 4.8 12.9 0.00 0.00 0.00 89 1011.5
20260904141549 25 169 4.8 12.9 0.00 0.00 0.00 89 1011.5
20260904141036 25 153 6.4 12.9 0.00 0.00 0.00 89 1011.4
20260904140525 25 114 3.2 12.9 0.00 0.00 0.00 89 1011.4
20260904140003 25 147 6.4 12.9 0.00 0.00 0.00 89 1011.3
20260904135554 25 124 3.2 12.9 0.00 0.00 0.00 89 1011.3
20260904135044 25 115 3.2 11.3 0.00 0.00 0.00 90 1011.2
20260904134532 25 113 3.2 9.7 0.00 0.00 0.00 90 1011.2
20260904134025 25 125 4.8 11.3 0.00 0.00 0.00 90 1011.1
20260904133511 25 138 3.2 16.1 0.00 0.00 0.00 90 1011.0
20260904133110 25 156 6.4 16.1 0.00 0.00 0.00 90 1010.8
20260904132552 25 148 1.6 12.9 0.00 0.00 0.00 90 1010.8
20260904132041 25 182 6.4 12.9 0.00 0.00 0.00 91 1010.8
20260904131530 25 117 1.6 11.3 0.00 0.00 0.00 91 1010.7
20260904131018 25 161 1.6 12.9 0.00 0.00 0.00 91 1010.8
20260904130508 25 139 4.8 12.9 0.00 0.00 0.00 91 1010.8
20260904130047 25 127 4.8 16.1 0.00 0.00 0.00 91 1010.8
20260904125536 25 87 6.4 16.1 0.00 0.00 0.00 91 1010.7
20260904125025 25 167 3.2 9.7 0.00 0.00 0.00 91 1010.6
20260904124515 25 138 3.2 14.5 0.00 0.00 0.00 91 1010.5
20260904124004 25 173 4.8 14.5 0.00 0.00 0.00 91 1010.5
20260904123555 25 175 3.2 12.9 0.00 0.00 0.00 91 1010.4
20260904123044 25 138 4.8 12.9 0.00 0.00 0.00 91 1010.3
20260904122534 25 160 0.0 11.3 0.00 0.00 0.00 91 1010.2
20260904122026 25 157 0.0 14.5 0.00 0.00 0.00 91 1010.1
20260904121512 25 156 6.4 14.5 0.00 0.00 0.00 91 1010.1
20260904121001 25 156 4.8 14.5 0.00 0.00 0.00 90 1010.0
20260904120552 25 122 3.2 8.0 0.00 0.00 0.00 90 1010.0
20260904120026 25 142 0.0 8.0 0.00 0.00 0.00 90 1010.0
20260904115516 25 147 3.2 9.7 0.00 0.00 0.00 90 1009.9
20260904115005 25 121 1.6 9.7 0.00 0.00 0.00 90 1009.8
20260904114557 25 119 3.2 9.7 0.00 0.00 0.00 90 1009.7
20260904114047 25 138 1.6 8.0 0.00 0.00 0.00 90 1009.6
20260904113536 25 133 3.2 9.7 0.00 0.00 0.00 90 1009.5
20260904113026 25 150 3.2 9.7 0.00 0.00 0.00 90 1009.4
20260904112514 25 132 3.2 9.7 0.00 0.00 0.00 90 1009.4
20260904112003 25 175 3.2 9.7 0.00 0.00 0.00 90 1009.5
20260904111555 25 128 1.6 6.4 0.00 0.00 0.00 90 1009.4
20260904111044 25 128 0.0 6.4 0.00 0.00 0.00 90 1009.5
20260904110533 25 127 1.6 6.4 0.00 0.00 0.00 90 1009.4
20260904110011 25 126 0.0 6.4 0.00 0.00 0.00 90 1009.4
20260904105603 25 162 0.0 8.0 0.00 0.00 0.00 90 1009.4
20260904105051 25 133 1.6 8.0 0.00 0.00 0.00 90 1009.5
20260904104542 25 134 0.0 6.4 0.00 0.00 0.00 90 1009.5
20260904104030 25 150 1.6 6.4 0.00 0.00 0.00 90 1009.6
20260904103521 25 147 3.2 6.4 0.00 0.00 0.00 89 1009.6
20260904103009 25 148 1.6 6.4 0.00 0.00 0.00 89 1009.7
20260904102601 25 158 1.6 6.4 0.00 0.00 0.00 89 1009.6
20260904102050 25 165 0.0 6.4 0.00 0.00 0.00 89 1009.4
20260904101539 25 161 1.6 11.3 0.00 0.00 0.00 89 1009.4
20260904101028 25 141 1.6 11.3 0.00 0.00 0.00 89 1009.4
20260904100524 25 144 0.0 4.8 0.00 0.00 0.00 89 1009.3
20260904100121 25 144 0.0 4.8 0.00 0.00 0.00 89 1009.3
20260904095551 25 151 0.0 4.8 0.00 0.00 0.00 89 1009.3
20260904095037 25 155 0.0 6.4 0.00 0.00 0.00 89 1009.3
20260904094526 25 142 1.6 9.7 0.00 0.00 0.00 89 1009.2
20260904094015 25 166 4.8 11.3 0.00 0.00 0.00 88 1009.1
20260904093509 25 192 1.6 9.7 0.00 0.00 0.00 88 1009.2
20260904093103 25 173 0.0 0.0 0.00 0.00 0.00 88 1009.2
20260904092545 25 177 0.0 8.0 0.00 0.00 0.00 88 1009.2
20260904092035 25 158 1.6 8.0 0.00 0.00 0.00 88 1009.2
20260904091543 25 173 1.6 9.7 0.00 0.00 0.00 88 1009.2
20260904091013 25 143 0.0 9.7 0.00 0.00 0.00 88 1009.2
20260904090503 25 148 0.0 9.7 0.00 0.00 0.00 88 1009.2
20260904090042 25 167 3.2 8.0 0.00 0.00 0.00 88 1009.2
20260904085531 25 146 1.6 6.4 0.00 0.00 0.00 88 1009.2
20260904085024 25 169 0.0 9.7 0.00 0.00 0.00 87 1009.2
20260904084510 25 159 4.8 9.7 0.00 0.00 0.00 87 1009.2
20260904084100 25 184 1.6 8.0 0.00 0.00 0.00 87 1009.2
20260904083551 25 194 3.2 11.3 0.00 0.00 0.00 87 1009.2
20260904083040 25 155 3.2 11.3 0.00 0.00 0.00 87 1009.3
20260904082528 25 144 4.8 9.7 0.00 0.00 0.00 87 1009.3
20260904082018 25 157 3.2 9.7 0.00 0.00 0.00 87 1009.3
20260904081507 25 180 3.2 14.5 0.00 0.00 0.00 87 1009.2
20260904081059 25 192 4.8 14.5 0.00 0.00 0.00 87 1009.2
20260904080548 25 185 6.4 12.9 0.00 0.00 0.00 86 1009.3
20260904080025 25 156 4.8 12.9 0.00 0.00 0.00 86 1009.3
20260904075515 25 167 4.8 14.5 0.00 0.00 0.00 86 1009.4
20260904075004 25 157 6.4 14.5 0.00 0.00 0.00 86 1009.5
20260904074606 25 166 6.4 16.1 0.00 0.00 0.00 85 1009.5
20260904074044 25 140 6.4 16.1 0.00 0.00 0.00 85 1009.6
20260904073533 25 180 9.7 14.5 0.00 0.00 0.00 85 1009.5
20260904073023 25 186 8.0 16.1 0.00 0.00 0.00 85 1009.6
20260904072511 26 167 3.2 16.1 0.00 0.00 0.00 84 1009.5
20260904072003 26 144 6.4 19.3 0.00 0.00 0.00 84 1009.6
20260904071621 26 215 8.0 19.3 0.00 0.00 0.00 84 1009.7
20260904071041 26 183 6.4 19.3 0.00 0.00 0.00 84 1009.7
20260904070531 26 183 11.3 19.3 0.00 0.00 0.00 84 1009.8
20260904070008 26 202 8.0 14.5 0.00 0.00 0.00 84 1009.9
20260904065601 26 193 9.7 14.5 0.00 0.00 0.00 84 1009.9
20260904065051 26 207 6.4 24.1 0.00 0.00 0.00 84 1009.9
20260904064544 26 190 6.4 17.7 0.00 0.00 0.00 83 1009.9
20260904064028 26 175 8.0 16.1 0.00 0.00 0.00 83 1009.8
20260904063517 26 169 6.4 19.3 0.00 0.00 0.00 83 1009.9
20260904063015 26 139 9.7 22.5 0.00 0.00 0.00 83 1009.9
20260904062557 26 173 9.7 22.5 0.00 0.00 0.00 83 1009.9
20260904062048 26 130 8.0 17.7 0.00 0.00 0.00 82 1010.0
20260904061538 26 170 12.9 22.5 0.00 0.00 0.00 82 1010.0
20260904061027 26 155 12.9 27.4 0.00 0.00 0.00 82 1010.0
20260904060519 26 165 12.9 24.1 0.00 0.00 0.00 82 1009.9
20260904060056 26 167 12.9 24.1 0.00 0.00 0.00 81 1009.9